Epoch = 2008 May 14.0 TT T = 2008 May 13.2573 TT Peri. = 310.4836 e = 0.374407 Node = 36.4178 2000.0 q = 2.524827 AU Incl. = 4.4128 a = 4.035895 AU n = 0.1215610 P = 8.11 years
m1 = 12.7 + 5 logΔ + 10.0 log r